When you browse on this site, cookies collect data to enhance your experience and personalize the content and advertising you see.
Visit our Privacy Policy to learn more. By continuing to use the site, you agree to this use of cookies and data.
  • en Suisse
  • Liste des pays
  • À 7 jours
  • Température de l'eau
  • Carte satellitaire
  • Carte météo
  • Widgets météo
  • user-avatar
    Se connecter

    Météo par heure à Ouina

    Ce jour, 18 Février, Lundi

    Heure Température Précipitation Vent Pression Humidité
    00:00 +21°C° 0 mm 0 m/s 740 mmHg 95%
    01:00 +21°C° 0 mm 0 m/s 740 mmHg 96%
    02:00 +21°C° 0 mm 0 m/s 740 mmHg 96%
    03:00 +21°C° 0 mm 0 m/s 740 mmHg 97%
    04:00 +21°C° 0 mm 0 m/s 740 mmHg 96%
    05:00 +21°C° 0 mm 0 m/s 741 mmHg 96%
    06:00 +21°C° 0 mm 0 m/s 741 mmHg 96%
    07:00 +24°C° 0 mm 0 m/s 741 mmHg 84%
    08:00 +26°C° 0 mm 0 m/s 742 mmHg 73%
    09:00 +30°C° 0 mm 1 m/s 742 mmHg 61%
    10:00 +31°C° 0 mm 1 m/s 742 mmHg 55%
    11:00 +33°C° 0 mm 1 m/s 741 mmHg 49%
    12:00 +35°C° 0 mm 2 m/s 741 mmHg 43%
    13:00 +35°C° 0 mm 2 m/s 740 mmHg 43%
    14:00 +35°C° 0 mm 2 m/s 740 mmHg 42%
    15:00 +36°C° 0 mm 2 m/s 739 mmHg 42%
    16:00 +32°C° 0 mm 2 m/s 739 mmHg 51%
    17:00 +30°C° 0 mm 1 m/s 740 mmHg 59%
    18:00 +28°C° 0 mm 1 m/s 740 mmHg 68%
    19:00 +27°C° 0 mm 1 m/s 740 mmHg 74%
    20:00 +26°C° 0 mm 1 m/s 741 mmHg 81%
    21:00 +24°C° 0 mm 1 m/s 742 mmHg 87%
    22:00 +22°C° 0 mm 0 m/s 742 mmHg 91%
    23:00 +21°C° 0 mm 0 m/s 742 mmHg 95%

    Demain, 19 Février, Mardi

    Heure Température Précipitation Vent Pression Humidité
    00:00 +20°C° 0 mm 0 m/s 742 mmHg 99%
    01:00 +21°C° 0 mm 0 m/s 742 mmHg 98%
    02:00 +21°C° 0 mm 0 m/s 741 mmHg 98%
    03:00 +21°C° 0 mm 0 m/s 741 mmHg 97%
    04:00 +21°C° 0.1 mm 0 m/s 741 mmHg 98%
    05:00 +21°C° 0.1 mm 0 m/s 741 mmHg 98%
    06:00 +20°C° 0.1 mm 0 m/s 742 mmHg 98%
    07:00 +22°C° 0 mm 0 m/s 742 mmHg 87%
    08:00 +25°C° 0 mm 0 m/s 742 mmHg 76%
    09:00 +29°C° 0 mm 1 m/s 743 mmHg 65%
    10:00 +29°C° 0.1 mm 1 m/s 742 mmHg 62%
    11:00 +30°C° 0.1 mm 2 m/s 742 mmHg 60%
    12:00 +31°C° 0.1 mm 2 m/s 741 mmHg 58%
    13:00 +31°C° 0.1 mm 2 m/s 741 mmHg 55%
    14:00 +31°C° 0.1 mm 2 m/s 740 mmHg 53%
    15:00 +31°C° 0.1 mm 2 m/s 739 mmHg 50%
    16:00 +30°C° 0.1 mm 2 m/s 739 mmHg 58%
    17:00 +28°C° 0.1 mm 1 m/s 739 mmHg 66%
    18:00 +26°C° 0.1 mm 1 m/s 740 mmHg 74%
    19:00 +25°C° 0 mm 1 m/s 740 mmHg 78%
    20:00 +24°C° 0 mm 1 m/s 741 mmHg 83%
    21:00 +21°C° 0 mm 0 m/s 741 mmHg 87%
    22:00 +20°C° 0 mm 0 m/s 741 mmHg 91%
    23:00 +19°C° 0 mm 0 m/s 741 mmHg 94%

    Après-demain, 20 Février, Mercredi

    Heure Température Précipitation Vent Pression Humidité
    00:00 +18°C° 0 mm 0 m/s 741 mmHg 97%
    01:00 +18°C° 0 mm 0 m/s 741 mmHg 97%
    02:00 +18°C° 0 mm 0 m/s 740 mmHg 96%
    03:00 +18°C° 0 mm 0 m/s 740 mmHg 96%
    04:00 +18°C° 0 mm 0 m/s 740 mmHg 96%
    05:00 +18°C° 0 mm 0 m/s 740 mmHg 97%
    06:00 +18°C° 0 mm 0 m/s 740 mmHg 97%
    07:00 +21°C° 0 mm 0 m/s 740 mmHg 85%
    08:00 +24°C° 0 mm 0 m/s 741 mmHg 72%
    09:00 +27°C° 0 mm 0 m/s 741 mmHg 60%
    10:00 +30°C° 0 mm 1 m/s 741 mmHg 53%
    11:00 +31°C° 0 mm 1 m/s 740 mmHg 47%
    12:00 +32°C° 0 mm 2 m/s 739 mmHg 41%
    13:00 +32°C° 0 mm 2 m/s 738 mmHg 42%
    14:00 +32°C° 0 mm 2 m/s 738 mmHg 43%
    15:00 +34°C° 0 mm 2 m/s 737 mmHg 44%
    16:00 +30°C° 0 mm 1 m/s 737 mmHg 54%
    17:00 +28°C° 0 mm 1 m/s 737 mmHg 65%
    18:00 +26°C° 0 mm 1 m/s 738 mmHg 75%
    19:00 +25°C° 0 mm 1 m/s 738 mmHg 83%
    20:00 +24°C° 0 mm 1 m/s 739 mmHg 90%
    21:00 +21°C° 0 mm 0 m/s 740 mmHg 98%
    22:00 +21°C° 0 mm 0 m/s 740 mmHg 98%
    23:00 +20°C° 0 mm 0 m/s 740 mmHg 99%

    21 Février, Jeudi

    Heure Température Précipitation Vent Pression Humidité
    00:00 +20°C° 0 mm 0 m/s 740 mmHg 99%
    01:00 +20°C° 0 mm 0 m/s 740 mmHg 99%
    02:00 +20°C° 0 mm 0 m/s 739 mmHg 99%
    03:00 +20°C° 0 mm 0 m/s 739 mmHg 99%
    04:00 +20°C° 0 mm 0 m/s 739 mmHg 99%
    05:00 +20°C° 0 mm 0 m/s 740 mmHg 99%
    06:00 +20°C° 0 mm 0 m/s 740 mmHg 99%
    07:00 +22°C° 0 mm 0 m/s 740 mmHg 91%
    08:00 +24°C° 0 mm 0 m/s 741 mmHg 83%
    09:00 +26°C° 0 mm 0 m/s 741 mmHg 74%
    10:00 +29°C° 0.1 mm 1 m/s 741 mmHg 70%
    11:00 +30°C° 0.1 mm 1 m/s 740 mmHg 66%
    12:00 +31°C° 0.1 mm 1 m/s 740 mmHg 62%
    13:00 +30°C° 1.1 mm 1 m/s 739 mmHg 71%
    14:00 +29°C° 1.1 mm 1 m/s 738 mmHg 81%
    15:00 +28°C° 1.1 mm 1 m/s 737 mmHg 90%
    16:00 +27°C° 0.6 mm 1 m/s 738 mmHg 93%
    17:00 +25°C° 0.6 mm 1 m/s 738 mmHg 95%
    18:00 +22°C° 0.6 mm 0 m/s 739 mmHg 98%
    19:00 +22°C° 0.2 mm 0 m/s 739 mmHg 98%
    20:00 +21°C° 0.2 mm 0 m/s 740 mmHg 98%
    21:00 +21°C° 0.2 mm 0 m/s 741 mmHg 98%
    22:00 +20°C° 0 mm 0 m/s 741 mmHg 99%
    23:00 +20°C° 0 mm 0 m/s 740 mmHg 99%

    22 Février, Vendredi

    Heure Température Précipitation Vent Pression Humidité
    00:00 +20°C° 0 mm 0 m/s 740 mmHg 99%
    01:00 +20°C° 0 mm 0 m/s 740 mmHg 99%
    02:00 +20°C° 0 mm 0 m/s 740 mmHg 99%
    03:00 +20°C° 0 mm 0 m/s 739 mmHg 99%
    04:00 +20°C° 0 mm 0 m/s 740 mmHg 99%
    05:00 +20°C° 0 mm 0 m/s 740 mmHg 99%
    06:00 +20°C° 0 mm 0 m/s 740 mmHg 99%
    07:00 +22°C° 0.1 mm 0 m/s 741 mmHg 95%
    08:00 +23°C° 0.1 mm 0 m/s 741 mmHg 91%
    09:00 +26°C° 0.1 mm 1 m/s 742 mmHg 86%
    10:00 +29°C° 0.1 mm 1 m/s 742 mmHg 73%
    11:00 +31°C° 0.1 mm 1 m/s 741 mmHg 59%
    12:00 +33°C° 0.1 mm 1 m/s 741 mmHg 45%
    13:00 +34°C° 0.2 mm 2 m/s 740 mmHg 48%
    14:00 +32°C° 0.2 mm 2 m/s 739 mmHg 52%
    15:00 +32°C° 0.2 mm 2 m/s 738 mmHg 55%
    16:00 +30°C° 0.1 mm 2 m/s 739 mmHg 64%
    17:00 +28°C° 0.1 mm 1 m/s 739 mmHg 73%
    18:00 +26°C° 0.1 mm 1 m/s 740 mmHg 83%
    19:00 +25°C° 0 mm 1 m/s 740 mmHg 87%
    20:00 +22°C° 0 mm 0 m/s 741 mmHg 92%
    21:00 +21°C° 0 mm 0 m/s 741 mmHg 96%
    22:00 +21°C° 0 mm 0 m/s 741 mmHg 97%
    23:00 +20°C° 0 mm 0 m/s 741 mmHg 98%

    23 Février, Samedi

    Heure Température Précipitation Vent Pression Humidité
    00:00 +20°C° 0 mm 0 m/s 741 mmHg 99%
    01:00 +20°C° 0 mm 0 m/s 741 mmHg 99%
    02:00 +20°C° 0 mm 0 m/s 740 mmHg 99%
    03:00 +20°C° 0 mm 0 m/s 740 mmHg 99%
    04:00 +20°C° 0 mm 0 m/s 740 mmHg 99%
    05:00 +20°C° 0 mm 0 m/s 741 mmHg 99%
    06:00 +20°C° 0 mm 0 m/s 741 mmHg 99%
    07:00 +22°C° 0.1 mm 0 m/s 742 mmHg 93%
    08:00 +25°C° 0.1 mm 1 m/s 742 mmHg 87%
    09:00 +27°C° 0.1 mm 1 m/s 742 mmHg 82%
    10:00 +29°C° 0.1 mm 1 m/s 742 mmHg 70%
    11:00 +31°C° 0.1 mm 1 m/s 741 mmHg 59%
    12:00 +34°C° 0.1 mm 2 m/s 741 mmHg 48%
    13:00 +34°C° 0.1 mm 2 m/s 740 mmHg 49%
    14:00 +34°C° 0.1 mm 2 m/s 739 mmHg 50%
    15:00 +34°C° 0.1 mm 2 m/s 739 mmHg 52%
    16:00 +31°C° 0.1 mm 2 m/s 739 mmHg 60%
    17:00 +29°C° 0.1 mm 1 m/s 739 mmHg 68%
    18:00 +27°C° 0.1 mm 1 m/s 740 mmHg 76%
    19:00 +26°C° 0.2 mm 1 m/s 740 mmHg 83%
    20:00 +25°C° 0.2 mm 1 m/s 741 mmHg 91%
    21:00 +22°C° 0.2 mm 0 m/s 741 mmHg 98%
    22:00 +21°C° 0.1 mm 0 m/s 741 mmHg 99%
    23:00 +21°C° 0.1 mm 0 m/s 741 mmHg 99%
    Voir plus